Regional Weather Roundup
Issued by NWS

Home | Current Version | Previous Version | Graphics & Text | Print | Product List | Glossary On
Versions: 1 2 3 4 5 6 7 8 9 10 11 12 13 14 15 16 17 18 19 20 21 22 23 24 25 26 27 28 29 30 31 32 33 34 35 36 37 38 39 40 41 42 43 44 45 46 47 48 49 50
552
ASUS43 KLMK 200610
RWRKY
KENTUCKY REGIONAL WEATHER ROUNDUP
NATIONAL WEATHER SERVICE LOUISVILLE KY
200 AM EDT FRI APR 20 2018

NOTE "FAIR" INDICATES FEW OR NO CLOUDS BELOW 12,000 FEET
WITH NO SIGNIFICANT WEATHER AND/OR OBSTRUCTIONS TO VISIBILITY.

KYZ001>023-026-027-061>063-070>075-200700-
WESTERN AND SOUTH CENTRAL KENTUCKY

CITY           SKY/WX    TMP DP  RH WIND       PRES   REMARKS
PADUCAH        FAIR      38  32  79 N3        30.38S
HENDERSON      FAIR      45  33  63 N8        30.40R
OWENSBORO      FAIR      47  29  49 N9        30.39R
HOPKINSVILLE   FAIR      41  32  69 CALM      30.36R
BOWLING GREEN  FAIR      37  34  89 CALM      30.36S
GLASGOW        FAIR      34  32  94 CALM      30.36S
$$

KYZ024-025-028>034-038-045-046-053-200700-
NORTH CENTRAL KENTUCKY

CITY           SKY/WX    TMP DP  RH WIND       PRES   REMARKS
LOUISVILLE/SDF FAIR      44  27  51 N12       30.37R
LOUISVILLE/LOU FAIR      44  28  53 N6        30.37R
FORT KNOX      FAIR      40  28  62 N8        30.37R WCI  35
$$

KYZ035>037-039>044-047>052-055>060-089>105-200700-
NORTHEAST KENTUCKY

CITY           SKY/WX    TMP DP  RH WIND       PRES   REMARKS
LEXINGTON      FAIR      40  29  64 NW6       30.34S
COVINGTON      FAIR      41  26  55 NW8       30.35R
FRANKFORT      FAIR      39  27  62 NW6       30.34S WCI  35
$$

KYZ054-064>069-076>088-106>120-200700-
SOUTHEAST KENTUCKY

CITY           SKY/WX    TMP DP  RH WIND       PRES   REMARKS
JACKSON        FAIR      37  29  72 SW3       30.32S
LONDON         FAIR      33  31  92 CALM      30.34S
SOMERSET       FAIR      32  32 100 CALM      30.36F
MIDDLESBORO    FAIR      32  32  99 CALM      30.36S
MONTICELLO     FAIR      28  26  92 W9        30.36F WCI  19
$$





USA.gov is the U.S. government's official web portal to all federal, state and local government web resources and services.